Lawrence, KS

6:42 AM CDT on October 21, 2017 (GMT -0500)
Lawrence Municipal

Weather History for KLWC - January, 2012

Change the Weather History Date:

Saturday, January 14, 2012

  Actual Average Record
Temperature  
Mean Temperature 32 °F 29 °F  
Max Temperature 46 °F 40 °F 58 °F (2016)
Min Temperature 18 °F 18 °F 5 °F (2005)
Degree Days  
Heating Degree Days 33 36  
Month to date heating degree days 437 504  
Since 1 July heating degree days 2351 2547  
Cooling Degree Days 0 0  
Month to date cooling degree days 0 0  
Year to date cooling degree days 0 0  
Moisture  
Dew Point 21 °F    
Average Humidity 61    
Maximum Humidity 84    
Minimum Humidity 37    
Precipitation  
Precipitation 0.00 in 0.03 in 0.25 in (2007)
Month to date precipitation 0.01 0.38  
Year to date precipitation 0.01 0.38  
Sea Level Pressure  
Sea Level Pressure 30.12 in    
Wind  
Wind Speed 11 mph (NW)    
Max Wind Speed 32 mph    
Max Gust Speed 43 mph    
Visibility 10 miles    
Events      
T = Trace of Precipitation, MM = Missing Value Source: NWS Daily Summary

Daily Weather History Graph

Daily Weather History Graph

Search for Another Location

Airport or City:

Trip Planner

Search our weather history database for the weather conditions in past years. The results will help you decide how hot, cold, wet, or windy it might be!

Date:

Astronomy

Jan. 14, 2012 Rise Set
Actual Time 7:38 AM CST 5:21 PM CST
Civil Twilight 7:09 AM CST 5:50 PM CST
Nautical Twilight 6:36 AM CST 6:23 PM CST
Astronomical Twilight 6:04 AM CST 6:55 PM CST
Moon 11:39 PM CST (1/14) 10:27 AM CST (1/14)
Length of Visible Light 10h 41m
Length of Day
9h 42m
Waning Gibbous, 68% of the Moon is Illuminated
Jan 14
Waning Gibbous
Jan 16
Last Quarter
Jan 23
New
Jan 30
First Quarter
Feb 7
Full

Hourly Weather History & Observations

Time (CST) Temp. Windchill Dew Point Humidity Pressure Visibility Wind Dir Wind Speed Gust Speed Precip Events Conditions
12:52 AM 25.0 °F 16.3 °F 16.0 °F 69% 29.96 in 10.0 mi ESE 8.1 mph - N/A   Clear
1:52 AM 25.0 °F 19.3 °F 16.0 °F 69% 29.92 in 10.0 mi SE 4.6 mph - N/A   Partly Cloudy
2:52 AM 28.0 °F 24.2 °F 16.0 °F 61% 29.92 in 10.0 mi Variable 3.5 mph - N/A   Clear
3:52 AM 33.1 °F 24.9 °F 19.0 °F 56% 29.92 in 10.0 mi West 10.4 mph - N/A   Clear
4:52 AM 37.0 °F 27.7 °F 19.9 °F 50% 29.92 in 10.0 mi WNW 16.1 mph 24.2 mph N/A   Clear
5:52 AM 37.9 °F 28.2 °F 24.1 °F 57% 29.96 in 10.0 mi WNW 18.4 mph 24.2 mph N/A   Clear
6:52 AM 37.9 °F 26.3 °F 26.1 °F 62% 30.01 in 10.0 mi NW 26.5 mph 36.8 mph N/A   Clear
7:52 AM 35.1 °F 23.8 °F 25.0 °F 67% 30.07 in 10.0 mi NW 20.7 mph 36.8 mph N/A   Clear
8:52 AM 34.0 °F 20.3 °F 23.0 °F 64% 30.13 in 10.0 mi NW 29.9 mph 38.0 mph N/A   Clear
9:52 AM 37.0 °F 25.6 °F 25.0 °F 62% 30.17 in 10.0 mi NW 24.2 mph 31.1 mph N/A   Clear
10:52 AM 39.9 °F 30.8 °F 26.1 °F 58% 30.20 in 10.0 mi NNW 18.4 mph - N/A   Clear
11:52 AM 41.0 °F 31.4 °F 25.0 °F 53% 30.20 in 10.0 mi NNW 21.9 mph 27.6 mph N/A   Clear
12:52 PM 43.0 °F 36.0 °F 25.0 °F 49% 30.20 in 10.0 mi NNW 13.8 mph 23.0 mph N/A   Mostly Cloudy
1:52 PM 45.0 °F 38.9 °F 24.1 °F 44% 30.19 in 10.0 mi NW 12.7 mph - N/A   Scattered Clouds
2:52 PM 45.0 °F 38.5 °F 23.0 °F 42% 30.20 in 10.0 mi WNW 13.8 mph - N/A   Clear
3:52 PM 46.0 °F 40.2 °F 21.9 °F 39% 30.19 in 10.0 mi WNW 12.7 mph - N/A   Clear
4:52 PM 42.1 °F 39.2 °F 21.0 °F 43% 30.20 in 10.0 mi WNW 4.6 mph - N/A   Clear
5:52 PM 33.1 °F - 19.0 °F 56% 30.22 in 10.0 mi Calm Calm - N/A   Clear
6:52 PM 26.1 °F - 17.1 °F 69% 30.24 in 10.0 mi Calm Calm - N/A   Clear
7:52 PM 21.9 °F - 16.0 °F 78% 30.25 in 10.0 mi Calm Calm - N/A   Clear
9:52 PM 21.0 °F 16.2 °F 16.0 °F 81% 30.25 in 10.0 mi ESE 3.5 mph - N/A   Clear
10:52 PM 19.9 °F - 15.1 °F 81% 30.25 in 10.0 mi Calm Calm - N/A   Clear
11:52 PM 19.9 °F 14.9 °F 16.0 °F 85% 30.24 in 10.0 mi East 3.5 mph - N/A   Clear